Hourly Data Report for September 09, 2017

All times are specified in Local Standard Time (LST). Add 1 hour to adjust for Daylight Saving Time where and when it is observed.

CLYDE RIVER A
NUNAVUT

70°29'09.000" N
68°31'01.000" W
26.50 m
2400804
71090
YCY

Related Data

No related data is available for this station

Download Data

Hourly Data (September 2017)
Hourly Data Report for September 9, 2017
Temp Definition
°C
Dew Point Temp Definition
°C
Rel Hum Definition
%
Wind Dir Definition
10's deg

Wind Spd Definition
km/h
Visibility Definition
km
Stn Press Definition
kPa
Hmdx Definition


Wind Chill Definition


Weather Definition


TIME
00:00 Legend Double Dagger 2.8 -0.2 81 16 46 16.1 98.18     LegendNANA
01:00 Legend Double Dagger 2.2 0.2 87 16 46 16.1 98.03     Rain
02:00 Legend Double Dagger 1.7 0.2 90 16 45 16.1 97.92     Rain
03:00 Legend Double Dagger 1.7 0.2 90 16 50 8.1 97.74     Fog
04:00 Legend Double Dagger 2.0 0.5 90 16 45 16.1 97.61     LegendNANA
05:00 Legend Double Dagger 2.1 0.4 89 17 46 16.1 97.50     LegendNANA
06:00 Legend Double Dagger 2.4 0.5 87 17 45 16.1 97.40     LegendNANA
07:00 Legend Double Dagger 2.8 0.9 87 16 26 16.1 97.35     LegendNANA
08:00 Legend Double Dagger 3.2 1.3 87 18 24 16.1 97.25     LegendNANA
09:00 Legend Double Dagger 3.6 1.3 85   0 16.1 97.18     LegendNANA
10:00 Legend Double Dagger 1.6 0.4 92 33 30 16.1 97.25     LegendNANA
11:00 Legend Double Dagger 1.0 -0.3 91 33 34 16.1 97.29     Rain
12:00 Legend Double Dagger 0.6 -0.6 92 33 28 16.1 97.35     Rain
13:00 Legend Double Dagger 0.6 -0.4 93 34 28 9.7 97.42     Rain,Fog
14:00 Legend Double Dagger 0.9 -1.3 85 33 26 16.1 97.44     LegendNANA
15:00 Legend Double Dagger 1.3 -1.3 83 34 22 16.1 97.50     LegendNANA
16:00 Legend Double Dagger 1.3 -1.0 85 34 17 16.1 97.57     LegendNANA
17:00 Legend Double Dagger 1.1 -1.1 85 34 9 16.1 97.62     LegendNANA
18:00 Legend Double Dagger 0.5 -1.4 87 8 8 16.1 97.66     LegendNANA
19:00 Legend Double Dagger -0.2 -1.5 91 15 15 16.1 97.72   -5 LegendNANA
20:00 Legend Double Dagger 0.2 -1.3 90 15 15 16.1 97.77     LegendNANA
21:00 Legend Double Dagger 2.2 -4.1 63 26 9 16.1 97.82     LegendNANA
22:00 Legend Double Dagger -0.8 -3.0 85 30 15 16.1 97.93   -5 LegendNANA
23:00 Legend Double Dagger -0.4 -3.2 82 26 9 16.1 98.01   -4 LegendNANA

Notes on Data Quality.

Legend

  • E = Estimated
  • M = Missing
  • NA = Not Available
  • ‡ = Partner data that is not subject to review by the National Climate Archives
Date modified: